Epoch 2000 June 25.0 TT = JDT 2451720.5 T 2000 July 4.3931 TT MPCN q 3.255382 (2000.0) P Q z -0.000514 Peri. 241.4871 +0.1423834 -0.2436174 +/-0.000001 Node 106.3818 -0.0685799 +0.9644808 e 1.001673 Incl. 89.4732 -0.9874329 -0.1021143 From 210 observations 1999 May 20-2002 Jan. 24, mean residual 0".6.
m1 = 5.8 + 5 logΔ + 10.0 log r [ , 0] ( 〜2000年 7月 4日) m1 = 8.2 + 5 logΔ + 5.0 log r [ 0,200] (2000年 7月 4日〜2001年 1月20日) m1 = 5.9 + 5 logΔ + 9.0 log r [200, ] (2001年 1月20日〜 )